TimeGMT,TemperatureF,Dew PointF,Humidity,Sea Level PressureIn,VisibilityMPH,Wind Direction,Wind SpeedMPH,Gust SpeedMPH,PrecipitationIn,Events,Conditions,WindDirDegrees,DateUTC
12:00 AM,46,42,79,28.61,12,SW,40.3,,,Rain,Light Rain Showers,230,2013-12-27 00:00:00
12:00 AM,46.4,41.0,81,28.59,6.2,SW,40.3,64.4,N/A,,Mostly Cloudy,230,2013-12-27 00:00:00
12:30 AM,46.4,41.0,81,28.56,6.2,SW,42.6,63.3,N/A,,Mostly Cloudy,230,2013-12-27 00:30:00
1:00 AM,46,40,74,28.58,12,WSW,35.8,,,Rain,Light Rain Showers,240,2013-12-27 01:00:00
1:00 AM,46.4,41.0,81,28.56,6.2,WSW,36.8,61.0,N/A,,Mostly Cloudy,240,2013-12-27 01:00:00
1:30 AM,46.4,41.0,81,28.56,6.2,WSW,36.8,59.8,N/A,,Mostly Cloudy,240,2013-12-27 01:30:00
2:00 AM,46,40,73,28.58,14,WSW,42.5,,,,Mostly Cloudy,240,2013-12-27 02:00:00
2:00 AM,46.4,41.0,81,28.56,6.2,WSW,41.4,61.0,N/A,,Mostly Cloudy,240,2013-12-27 02:00:00
2:30 AM,44.6,41.0,87,28.56,6.2,WSW,41.4,58.7,N/A,,Mostly Cloudy,240,2013-12-27 02:30:00
3:00 AM,46,40,74,28.59,16,WSW,35.8,,,Rain,Light Rain Showers,240,2013-12-27 03:00:00
3:00 AM,46.4,41.0,81,28.56,6.2,WSW,35.7,59.8,N/A,,Mostly Cloudy,240,2013-12-27 03:00:00
3:30 AM,44.6,41.0,87,28.56,6.2,WSW,38.0,58.7,N/A,,Mostly Cloudy,240,2013-12-27 03:30:00
4:00 AM,45,41,79,28.60,12,WSW,35.8,,,Rain,Light Rain Showers,240,2013-12-27 04:00:00
4:00 AM,44.6,41.0,87,28.59,6.2,WSW,36.8,58.7,N/A,,Mostly Cloudy,240,2013-12-27 04:00:00
4:30 AM,44.6,39.2,81,28.62,6.2,WSW,35.7,55.2,N/A,,Mostly Cloudy,240,2013-12-27 04:30:00
5:00 AM,44,41,83,28.65,12,WSW,31.3,,,Rain,Light Rain Showers,240,2013-12-27 05:00:00
5:00 AM,42.8,41.0,93,28.62,6.2,WSW,31.1,44.9,N/A,,Mostly Cloudy,240,2013-12-27 05:00:00
5:30 AM,44.6,41.0,87,28.68,6.2,WSW,27.6,46.0,N/A,Rain,Light Rain Showers,250,2013-12-27 05:30:00
6:00 AM,44,40,79,28.72,12,WSW,26.8,,,Rain,Light Rain Showers,250,2013-12-27 06:00:00
6:00 AM,44.6,39.2,81,28.71,6.2,WSW,27.6,-,N/A,Rain,Light Rain Showers,250,2013-12-27 06:00:00
6:30 AM,44.6,39.2,81,28.71,6.2,WSW,26.5,-,N/A,,Mostly Cloudy,250,2013-12-27 06:30:00
7:00 AM,44,38,74,28.76,12,WSW,24.6,,,Rain,Light Rain Showers,250,2013-12-27 07:00:00
7:00 AM,44.6,39.2,81,28.74,6.2,WSW,25.3,-,N/A,,Mostly Cloudy,250,2013-12-27 07:00:00
7:30 AM,44.6,39.2,81,28.77,6.2,WSW,21.9,33.4,N/A,,Mostly Cloudy,250,2013-12-27 07:30:00
8:00 AM,42,40,88,28.80,12,WSW,22.4,,,Rain,Light Rain Showers,250,2013-12-27 08:00:00
8:00 AM,42.8,39.2,87,28.77,6.2,WSW,23.0,35.7,N/A,Rain,Light Rain Showers,250,2013-12-27 08:00:00
8:30 AM,42.8,39.2,87,28.80,6.2,WSW,19.6,31.1,N/A,Rain,Light Rain Showers,250,2013-12-27 08:30:00
9:00 AM,41,38,85,28.85,14,WSW,22.4,,,Rain,Light Rain Showers,240,2013-12-27 09:00:00
9:00 AM,41.0,37.4,87,28.82,6.2,WSW,23.0,-,N/A,,Mostly Cloudy,240,2013-12-27 09:00:00
9:30 AM,41.0,37.4,87,28.85,6.2,WSW,27.6,40.3,N/A,Rain,Light Rain Showers,250,2013-12-27 09:30:00
10:00 AM,41,38,87,28.89,12,WSW,22.4,,,Rain,Light Rain Showers,240,2013-12-27 10:00:00
10:00 AM,41.0,39.2,93,28.85,6.2,WSW,21.9,35.7,N/A,,Scattered Clouds,240,2013-12-27 10:00:00
10:30 AM,42.8,37.4,81,28.88,6.2,West,31.1,49.5,N/A,Rain,Light Rain Showers,260,2013-12-27 10:30:00
11:00 AM,42,38,82,28.93,12,WSW,20.1,,,Rain,Light Rain Showers,240,2013-12-27 11:00:00
11:00 AM,41.0,39.2,93,28.91,6.2,WSW,20.7,33.4,N/A,,Scattered Clouds,240,2013-12-27 11:00:00
11:30 AM,42.8,37.4,81,28.91,6.2,WSW,25.3,36.8,N/A,Rain,Light Rain Showers,250,2013-12-27 11:30:00
12:00 PM,42,37,76,28.96,12,West,26.8,,,Rain,Light Rain Showers,260,2013-12-27 12:00:00
12:00 PM,41.0,37.4,87,28.94,6.2,West,27.6,43.7,N/A,Rain,Light Rain Showers,260,2013-12-27 12:00:00
12:30 PM,42.8,37.4,81,28.94,6.2,West,16.1,-,N/A,,Scattered Clouds,260,2013-12-27 12:30:00
1:00 PM,44,37,69,28.97,12,West,20.1,,,,Scattered Clouds,260,2013-12-27 13:00:00
1:00 PM,42.8,37.4,81,28.94,6.2,West,20.7,-,N/A,,Partly Cloudy,260,2013-12-27 13:00:00
1:30 PM,42.8,35.6,76,28.97,6.2,West,26.5,39.1,N/A,Rain,Light Rain Showers,260,2013-12-27 13:30:00
2:00 PM,40,35,77,29.00,25,West,24.6,,,Rain,Light Rain Showers,270,2013-12-27 14:00:00
2:00 PM,41.0,35.6,81,28.97,6.2,West,24.2,42.6,N/A,Rain,Light Rain Showers,270,2013-12-27 14:00:00
2:30 PM,41.0,37.4,87,28.97,6.2,WSW,18.4,-,N/A,,Scattered Clouds,240,2013-12-27 14:30:00
3:00 PM,41,35,73,29.00,19,WSW,17.9,,,Rain,Light Rain Showers,250,2013-12-27 15:00:00
3:00 PM,41.0,35.6,81,28.97,6.2,WSW,17.3,-,N/A,,Mostly Cloudy,250,2013-12-27 15:00:00
3:30 PM,41.0,35.6,81,28.97,6.2,WSW,16.1,-,N/A,,Scattered Clouds,250,2013-12-27 15:30:00
4:00 PM,40,34,73,29.02,22,WSW,15.7,,,,Mostly Cloudy,240,2013-12-27 16:00:00
4:00 PM,39.2,33.8,81,29.00,6.2,WSW,15.0,26.5,N/A,,Mostly Cloudy,240,2013-12-27 16:00:00
4:30 PM,39.2,33.8,81,29.00,6.2,WSW,15.0,-,N/A,,Scattered Clouds,240,2013-12-27 16:30:00
5:00 PM,39,35,80,29.05,19,WSW,15.7,,,,Scattered Clouds,240,2013-12-27 17:00:00
5:00 PM,39.2,35.6,87,29.03,6.2,WSW,15.0,-,N/A,,Scattered Clouds,240,2013-12-27 17:00:00
5:30 PM,39.2,35.6,87,29.03,6.2,WSW,17.3,-,N/A,,Partly Cloudy,240,2013-12-27 17:30:00
6:00 PM,40,35,75,29.06,19,WSW,15.7,,,,Partly Cloudy,250,2013-12-27 18:00:00
6:00 PM,39.2,35.6,87,29.00,6.2,WSW,15.0,-,N/A,,Scattered Clouds,250,2013-12-27 18:00:00
6:30 PM,41.0,33.8,76,29.03,6.2,WSW,16.1,-,N/A,,Mostly Cloudy,250,2013-12-27 18:30:00
7:00 PM,38,34,78,29.09,19,WSW,11.2,,,,Partly Cloudy,240,2013-12-27 19:00:00
7:00 PM,39.2,33.8,81,29.06,6.2,WSW,11.5,-,N/A,,Mostly Cloudy,240,2013-12-27 19:00:00
7:30 PM,39.2,33.8,81,29.06,6.2,WSW,16.1,-,N/A,,Partly Cloudy,250,2013-12-27 19:30:00
8:00 PM,38,33,77,29.12,19,WSW,11.2,,,,Scattered Clouds,250,2013-12-27 20:00:00
8:00 PM,37.4,33.8,87,29.09,6.2,WSW,11.5,-,N/A,,Partly Cloudy,250,2013-12-27 20:00:00
8:30 PM,39.2,33.8,81,29.09,6.2,West,12.7,-,N/A,,Scattered Clouds,260,2013-12-27 20:30:00
9:00 PM,38,34,78,29.13,19,West,11.2,,,,Scattered Clouds,270,2013-12-27 21:00:00
9:00 PM,37.4,33.8,87,29.09,6.2,West,10.4,-,N/A,,Partly Cloudy,270,2013-12-27 21:00:00
9:30 PM,37.4,33.8,87,29.09,6.2,WSW,9.2,-,N/A,,Partly Cloudy,250,2013-12-27 21:30:00
10:00 PM,37,34,85,29.15,19,WSW,13.4,,,,Scattered Clouds,240,2013-12-27 22:00:00
10:00 PM,37.4,33.8,87,29.12,6.2,WSW,13.8,-,N/A,,Partly Cloudy,240,2013-12-27 22:00:00
10:30 PM,39.2,35.6,87,29.12,6.2,West,18.4,-,N/A,,Partly Cloudy,260,2013-12-27 22:30:00
11:00 PM,39,34,77,29.17,19,West,13.4,,,Rain,Light Rain Showers,270,2013-12-27 23:00:00
11:00 PM,39.2,33.8,81,29.15,6.2,West,12.7,-,N/A,,Partly Cloudy,270,2013-12-27 23:00:00